Portada
METAR-TAF:

METAR-TAF

Aeropuertos :

Aeródromo de Teruel

Teruel, España

latitud: 40-24-43N, longitud: 01-13-03W, altitud: 1030 m

Observación

El informe se hizo hace 22 minutos, a las 19:30 UTC
Viento calma
Temperatura 5°C
Humedad 93%
Presión 1019 hPa
Visibilidad: 2600 m
neblina

METAR: LETL 291930Z AUTO 00000KT 2600 BR NCD 05/04 Q1019

Hora: 20:52 (19:52 UTC)


TAF: falta

Observaciones y pronósticos meteorológicos de más de 4000 aeropuertos (mensajes METAR y TAF).

Los puntos amarillos y rojos representan las estaciones disponibles.

Ponga el ratón en el punto deseado para ver el nombre de la estación.

Haga clic para ver las observaciones y los pronósticos meteorológicos.

Para cambiar el mapa : haga clic en los botones verdes con una cruz de color negro para hacer un zoom, en el botón verde con un guión para alejar o en las flechas verdes para mapas adyacentes.


METAR-TAF: